#timestamp,LO_Frequency,Hit,StdDev 
1593712815.4,286046996.6,N
1593712835.3,286046997.7,N
1593712855.1,286046999.2,N
1593712875.9,286046999.0,N
1593712895.7,286046998.2,N
1593712915.5,286046998.5,N
1593712935.4,286046998.5,N
1593712955.2,286047001.1,N
1593712975.1,286046998.9,N
1593712976.0,286046998.9,N
1593712995.8,286046998.3,N
1593713015.6,286046999.4,N
1593713035.5,286046999.3,N
1593713055.3,286046999.1,N
1593713075.1,286046998.6,N
1593713095.9,286046996.5,N
1593713115.7,286046999.4,N
1593713135.6,286046999.2,N
1593713155.4,286046999.6,N
1593713175.2,286046998.6,N
1593713195.1,286046998.3,N
1593713196.0,286046998.3,N
1593713215.8,286046999.6,N
1593713235.7,286046999.1,N
1593713255.5,286046999.1,N
1593713275.3,286046998.2,N
1593713295.2,286046997.0,Y
1593713315.0,286047000.2,P
1593713315.9,286047000.2,N
1593713335.8,286046998.8,N
1593713355.6,286047000.9,N
1593713375.4,286047000.3,N
1593713395.3,286046998.4,N
1593713415.1,286046998.2,N
1593713435.8,286046998.5,N
1593713455.7,286046996.9,Y
1593713475.5,286046998.7,P
1593713495.4,286047000.5,N
1593713515.2,286047001.0,N
1593713535.0,286047000.1,N
1593713535.9,286047000.1,N
1593713555.8,286046999.7,N
1593713575.6,286047002.7,Y
1593713595.5,286047002.3,P
1593713615.3,286047001.9,N
1593713635.1,286047001.6,N
1593713655.9,286047003.8,Y
1593713675.7,286047000.2,P
1593713695.6,286047001.0,N
1593713715.4,286046996.7,P
1593713735.2,286046996.6,N
1593713755.1,286046997.7,N
1593713756.0,286046997.7,N
1593713775.8,286046997.9,N
1593713795.6,286046995.8,N
1593713815.5,286046996.1,N
1593713835.3,286046993.5,Y
1593713855.2,286046995.1,P
1593713875.0,286046999.1,N
1593713875.9,286046999.1,N
1593713895.7,286046998.5,N
1593713915.6,286047001.0,N
1593713935.4,286046999.5,N
1593713955.3,286047000.1,N
1593713975.1,286047000.9,N
1593713976.0,286047000.9,N
1593713995.8,286046999.9,N
1593714015.7,286047000.7,N
1593714035.5,286046997.4,N
1593714055.3,286046999.3,N
1593714075.2,286046998.8,N
1593714095.0,286046998.3,N
1593714095.9,286046998.3,N
1593714115.8,286046999.2,N
1593714135.6,286047001.3,N
1593714155.4,286047001.2,N
1593714175.3,286047000.9,N
1593714195.1,286047000.7,N
1593714215.9,286047001.5,N
1593714235.7,286047000.3,N
1593714255.5,286047002.3,N
1593714275.4,286047000.2,N
1593714295.2,286046999.1,N
1593714315.0,286047000.7,N
1593714316.0,286047000.7,N
1593714335.8,286046998.4,N
1593714355.6,286046999.0,N
1593714375.5,286047000.3,N
1593714395.3,286046998.6,N
1593714415.1,286047000.6,N
1593714435.9,286046999.7,N
1593714455.7,286047000.5,N
1593714475.6,286046999.8,N
1593714495.4,286047002.7,N
1593714515.2,286047000.5,N
1593714535.1,286046999.7,N
1593714536.0,286046999.7,N
1593714555.8,286047002.1,N
1593714575.7,286046999.7,N
1593714595.5,286047001.7,N
1593714615.3,286047002.3,N
1593714635.2,286047000.3,N
1593714655.0,286047000.1,N
1593714655.9,286047000.1,N
1593714675.7,286047001.0,N
1593714695.6,286047001.1,N
1593714715.4,286047000.7,N
1593714735.3,286047000.0,N
1593714755.1,286046999.9,N
1593714775.8,286046999.8,N
1593714795.7,286046999.8,N
1593714815.5,286047000.2,N
1593714835.4,286047000.5,N
1593714855.2,286047000.9,N
1593714875.0,286047002.7,N
1593714875.9,286047002.7,N
1593714895.8,286047001.9,N
1593714915.6,286047004.8,Y
1593714935.4,286047003.0,P
1593714955.3,286047003.9,P
1593714975.1,286047004.4,P
1593714995.9,286047001.5,N
1593715015.7,286047001.5,N
1593715035.5,286046998.2,N
1593715055.4,286046998.2,N
1593715075.2,286046999.6,N
1593715095.0,286046996.9,N
1593715096.0,286046996.9,N
1593715115.8,286046999.3,N
1593715135.6,286046999.6,N
1593715155.5,286046999.1,N
1593715175.3,286046999.6,N
1593715195.1,286047001.1,N
1593715215.9,286046999.0,N
1593715235.7,286046998.3,N
1593715255.6,286046998.2,N
1593715275.4,286047000.4,N
1593715295.2,286047002.3,N
1593715315.1,286046998.3,N
1593715316.0,286046998.3,N
1593715335.8,286046998.4,N
1593715355.7,286046998.4,N
1593715375.5,286046998.6,N
1593715395.3,286047003.6,N
1593715415.2,286047000.7,N
1593715435.0,286047000.8,N
1593715435.9,286047000.8,N
1593715455.7,286046999.8,N
1593715475.6,286047000.1,N
1593715495.4,286047002.2,N
1593715515.3,286047002.4,N
1593715535.1,286047002.8,N
1593715536.0,286047002.8,N
1593715555.8,286047002.1,N
1593715575.7,286047002.6,N
1593715595.5,286047001.5,N
1593715615.4,286047004.4,N
1593715635.2,286047003.7,N
1593715655.0,286047001.8,N
1593715655.9,286047001.8,N
1593715675.8,286047004.1,N
1593715695.6,286047001.8,N
1593715715.4,286047001.6,N
1593715735.3,286047001.5,N
1593715755.1,286047004.0,N
1593715775.9,286047004.3,N
1593715795.7,286047004.2,N
1593715815.5,286047003.3,N
1593715835.4,286047003.1,N
1593715855.2,286047004.1,N
1593715875.1,286047003.8,N
1593715876.0,286047003.8,N
1593715895.8,286047003.2,N
1593715915.6,286047003.5,N
1593715935.5,286047003.1,N
1593715955.3,286047003.1,N
1593715975.1,286047003.3,N
1593715995.9,286047005.5,Y
1593716015.7,286047002.6,P
1593716035.6,286046999.7,P
1593716055.4,286047002.1,N
1593716075.2,286047002.0,N
1593716095.1,286047011.9,Y
1593716096.0,286047004.3,P
1593716115.8,286047000.1,N
1593716135.7,286047001.0,N
1593716155.5,286047000.5,N
1593716175.3,286046999.8,N
1593716195.2,286047000.6,N
1593716215.0,286047000.6,N
1593716215.9,286047000.6,N
1593716235.8,286047000.5,N
1593716255.6,286047001.2,N
1593716275.4,286047001.2,N
1593716295.3,286047000.8,N
1593716315.1,286047001.1,N
1593716335.9,286046998.6,N
1593716355.7,286047001.0,N
1593716375.5,286046998.5,N
1593716395.4,286047001.0,N
